Location: Alpha Ridge Park
(39.3209°N, 76.9128°W)
Time: 20:42:37
(UTC-04:00)

S-56A Canister/Altair - Pass Details

Date: 20 May 2019
Orbit: 633 x 2499 km, 38.9° (Epoch: 14 June)

Event Time Altitude Azimuth Distance (km) Brightness Sun altitude
Rises 07:51:28 0° 283° (WNW) 4,714 11.0 21.4°
Reaches altitude 10° 07:54:13 10° 281° (W) 3,949 10.7 22.0°
Maximum altitude 08:05:09 69° 202° (SSW) 2,269 10.2 24.1°
Drops below altitude 10° 08:19:48 10° 123° (ESE) 5,139 12.7 26.9°
Sets 08:23:56 0° 121° (ESE) 6,170 12.9 27.7°
